Miscellaneous Local Product
Issued by NWS North Platte, NE

Home | Current Version | Previous Version | Graphics & Text | Print | Product List | Glossary On
Versions: 1 2 3 4 5 6 7 8 9 10 11 12 13 14 15 16 17 18 19 20 21 22 23 24 25 26 27 28 29 30 31 32 33 34 35 36 37 38 39 40 41 42 43 44 45 46 47 48 49 50
000
AXUS43 KLBF 210110
MISLBF


WESTERN AND NORTH CENTRAL NEBRASKA HOURLY WEATHER ROUNDUP
NATIONAL WEATHER SERVICE NORTH PLATTE NE
800 PM CDT TUE JUN 20 2017

NOTE: "FAIR" INDICATES FEW OR NO CLOUDS BELOW 12,000 FEET WITH NO
SIGNIFICANT WEATHER AND/OR OBSTRUCTIONS TO VISIBILITY.

NOTE: STATIONS NOT REPORTING VARIABLES SUCH AS SKY/WEATHER OR
PRESSURE ARE PROVIDED BY RAWS AND APRS NETWORKS AND ARE NOT UNDER
NATIONAL WEATHER SERVICE QUALITY CONTROL.

...OBSERVATIONS IN AND NEAR THE EASTERN PANHANDLE OF NEBRASKA...

CITY           SKY/WX    TMP DP  RH WIND       PRES   REMARKS
PINE RIDGE     SUNNY     90  49  24 S12       29.88F
GORDON         FAIR      90  48  23 CALM      29.90F
CHADRON        SUNNY     92  46  20 S7        29.86F
ALLIANCE       SUNNY     90  44  20 NE3       29.93S
SIDNEY         SUNNY     89  44  20 NE10      29.97S
CRESCENT LAKE    N/A     93  42  16 N3          N/A
$$

...OBSERVATIONS IN NORTHERN NEBRASKA AND FAR SOUTHERN SOUTH DAKOTA...

CITY           SKY/WX    TMP DP  RH WIND       PRES   REMARKS
WINNER         FAIR      84  48  28 E16       29.87F
VALENTINE      SUNNY     91  43  18 SE15      29.87S
THEDFORD       MOSUNNY   92  51  24 E17G24    29.89R HX  90
AINSWORTH      SUNNY     83  51  33 E16       29.90S
O`NEILL        SUNNY     82  53  36 E10       29.90S
ORD            SUNNY     87  47  24 E14       29.87R
BROKEN BOW     SUNNY     88  57  34 SE14G26   29.88S
VALENTINE NWR    N/A     87  52  29 E13         N/A
HALSEY           N/A     95  50  21 SE5G13      N/A  HX  92
BUTTE            N/A     81  50  33 E9          N/A
CHAMBERS         N/A     84  49  29 E3          N/A
$$

...OBSERVATIONS IN SOUTHWEST NEBRASKA AND FAR NORTHEAST COLORADO...

CITY           SKY/WX    TMP DP  RH WIND       PRES   REMARKS
WRAY           FAIR      97  36  11 N6        29.91R HX  92
IMPERIAL       SUNNY     97  42  15 S3        29.87S HX  93
OGALLALA       SUNNY     98  42  14 CALM      29.88R HX  93
NORTH PLATTE   LGT RAIN  91  60  35 E18       29.86R HX  90
MCCOOK         CLOUDY    85  66  53 S16       29.87R
LEXINGTON      SUNNY     91  56  30 E13       29.88R
STAPLETON        N/A     89  59  36 E3          N/A
GOTHENBURG       N/A     91  56  30 E13         N/A
CALLAWAY         N/A     92  59  32 SE13        N/A  HX  91
$$

...OBSERVATIONS IN CENTRAL LINCOLN COUNTY AREA...

CITY           SKY/WX    TMP DP  RH WIND       PRES   REMARKS
N.P. AIRPORT   LGT RAIN  91  60  35 E18       29.86R HX  90
N.P. DOWNTOWN    N/A     91  62  37 E6G15       N/A  HX  91
N.P. SOUTHEAST   N/A     91  61  36 E3          N/A  HX  91
N.P. HILLCREST   N/A     91  59  33 E20G26      N/A  HX  90
$$

...SOME OBSERVATIONS FROM AROUND THE REGION...

CITY           SKY/WX    TMP DP  RH WIND       PRES   REMARKS
DENVER         MOSUNNY   93  38  14 NE10      30.02S
LIMON          SUNNY     92  37  14 NE8       30.03S
ASPEN          LGT RAIN  75  48  38 SW8       30.28R
LARAMIE        CLOUDY    73  45  36 MISG      30.21F
CASPER         MOSUNNY   80  45  28 W18G33    30.06R
CHEYENNE       CLOUDY    79  47  32 E6        30.10S
SCOTTSBLUFF    SUNNY     90  47  22 E8        29.91F
GRAND ISLAND   SUNNY     87  60  40 SE8       29.90R
OMAHA          PTCLDY    86  56  35 NE6       29.87S
SIOUX FALLS    PTSUNNY   73  52  47 NE7       29.93S
PIERRE         SUNNY     78  50  37 SE10      29.86F
RAPID CITY     SUNNY     87  53  31 SE17      29.84F
BISMARCK       MOSUNNY   73  45  36 SE8       29.91F
KANSAS CITY    PTCLDY    83  70  64 SW6       29.91R
HILL CITY      CLOUDY    74  68  81 SW7       29.90F
WICHITA        MOCLDY    84  64  50 S9        29.94R
DODGE CITY     TSTM      76  62  62 S31G49    29.95F
OKLAHOMA CITY  PTCLDY    86  56  35 S9        29.97R
DALLAS         PTCLDY    89  61  38 SE7       29.91R
AMARILLO       SUNNY     91  55  29 S17       30.02R
$$




USA.gov is the U.S. government's official web portal to all federal, state and local government web resources and services.